Seneca, SC

6:17 PM EST on December 06, 2016 (GMT -0500)
Oconee County Regional

Weather History for KCEU - April, 2014

Change the Weather History Date:

Sunday, April 13, 2014

  Actual Average Record
Temperature  
Mean Temperature 68 °F -  
Max Temperature 81 °F 72 °F 88 °F (1930)
Min Temperature 57 °F 47 °F 27 °F (1940)
Cooling Degree Days 4    
Growing Degree Days 18 (Base 50)    
Moisture  
Dew Point 53 °F    
Average Humidity 58    
Maximum Humidity 87    
Minimum Humidity 36    
Precipitation  
Precipitation 0.00 in - - ()
Sea Level Pressure  
Sea Level Pressure 30.11 in    
Wind  
Wind Speed 2 mph (South)    
Max Wind Speed 8 mph    
Max Gust Speed -    
Visibility 10 miles    
Events      
Averages and records for this station are not official NWS values.
T = Trace of Precipitation, MM = Missing Value Source: NWS Daily Summary

Daily Weather History Graph

Daily Weather History Graph

Search for Another Location

Airport or City:

Trip Planner

Search our weather history database for the weather conditions in past years. The results will help you decide how hot, cold, wet, or windy it might be!

Date:

Astronomy

Apr. 13, 2014 Rise Set
Actual Time 7:02 AM EDT 8:02 PM EDT
Civil Twilight 6:36 AM EDT 8:27 PM EDT
Nautical Twilight 6:06 AM EDT 8:58 PM EDT
Astronomical Twilight 5:34 AM EDT 9:30 PM EDT
Moon 6:41 PM EDT (4/13) 5:56 AM EDT (4/13)
Length of Visible Light 13h 51m
Length of Day
12h 59m
Waxing Gibbous, 97% of the Moon is Illuminated
Apr 13
Waxing Gibbous
Apr 15
Full
Apr 22
Last Quarter
Apr 29
New
May 6
First Quarter

Hourly Weather History & Observations

Time (EDT) Temp. Dew Point Humidity Pressure Visibility Wind Dir Wind Speed Gust Speed Precip Events Conditions
12:54 AM 63.0 °F 53.1 °F 70% 30.13 in 10.0 mi Calm Calm - N/A   Clear
1:54 AM 63.0 °F 53.1 °F 70% 30.13 in 10.0 mi Calm Calm - N/A   Clear
2:54 AM 62.1 °F 51.1 °F 67% 30.12 in 10.0 mi Calm Calm - N/A   Clear
3:54 AM 57.9 °F 53.1 °F 84% 30.12 in 10.0 mi Variable 3.5 mph - N/A   Clear
4:54 AM 60.1 °F 52.0 °F 75% 30.13 in 10.0 mi Calm Calm - N/A   Clear
5:54 AM 57.0 °F 52.0 °F 83% 30.14 in 10.0 mi Calm Calm - N/A   Clear
6:54 AM 57.0 °F 52.0 °F 83% 30.15 in 10.0 mi Calm Calm - N/A   Clear
7:54 AM 57.0 °F 53.1 °F 87% 30.16 in 6.0 mi Calm Calm - N/A   Clear
8:54 AM 62.1 °F 54.0 °F 75% 30.18 in 10.0 mi Calm Calm - N/A   Partly Cloudy
9:54 AM 66.0 °F 53.1 °F 63% 30.18 in 10.0 mi Variable 3.5 mph - N/A   Mostly Cloudy
10:54 AM 70.0 °F 54.0 °F 57% 30.19 in 10.0 mi West 5.8 mph - N/A   Overcast
11:54 AM 73.0 °F 54.0 °F 51% 30.18 in 10.0 mi Calm Calm - N/A   Mostly Cloudy
12:54 PM 75.9 °F 54.0 °F 46% 30.15 in 10.0 mi South 8.1 mph - N/A   Partly Cloudy
1:54 PM 78.1 °F 54.0 °F 43% 30.13 in 10.0 mi Variable 3.5 mph - N/A   Mostly Cloudy
2:54 PM 79.0 °F 54.0 °F 42% 30.11 in 10.0 mi Variable 3.5 mph - N/A   Mostly Cloudy
3:54 PM 79.0 °F 53.1 °F 40% 30.09 in 10.0 mi Variable 5.8 mph - N/A   Mostly Cloudy
4:54 PM 80.1 °F 52.0 °F 38% 30.07 in 10.0 mi South 8.1 mph - N/A   Scattered Clouds
5:54 PM 79.0 °F 50.0 °F 36% 30.06 in 10.0 mi SSE 8.1 mph - N/A   Scattered Clouds
6:54 PM 77.0 °F 51.1 °F 40% 30.06 in 10.0 mi Variable 3.5 mph - N/A   Mostly Cloudy
7:54 PM 75.0 °F 52.0 °F 44% 30.04 in 10.0 mi SSE 3.5 mph - N/A   Scattered Clouds
8:54 PM 73.9 °F 52.0 °F 46% 30.05 in 10.0 mi SSE 3.5 mph - N/A   Mostly Cloudy
9:54 PM 73.0 °F 53.1 °F 49% 30.06 in 10.0 mi SSE 4.6 mph - N/A   Overcast
10:54 PM 72.0 °F 54.0 °F 53% 30.04 in 10.0 mi South 4.6 mph - N/A   Mostly Cloudy
11:54 PM 71.1 °F 54.0 °F 55% 30.04 in 10.0 mi Variable 5.8 mph - N/A   Clear